Flag for Australia Weather past 2 weeks in Adelaide, South Australia, Australia

Now
61 °F

Passing clouds.


Feels Like: 61 °F
Forecast: 59 / 73 °F
Wind: 15 mph from South

Location: Adelaide Airport

Current Time: Feb 1, 2015 at 9:49:26 PM

Latest Report: Feb 1, 2015 at 9:30 PM


Visibility: N/A

Pressure: 30.09 "Hg

Humidity: 63%

Dew point: 48 °F

Location of AdelaideLocation

Historic Weather in Adelaide — Graph

°F

Adelaide temperature yesterday

Maximum temperature yesterday: 73 °F (at 1:00 PM)
Minimum temperature yesterday: 59 °F (at 3:30 AM)
Average temperature yesterday: 65 °F

Past Weeks' High & Low Weather Summary

 TemperatureHumidityPressure
High90 °F (Jan 20, 1:00 PM)94% (Jan 21, 5:30 AM)30.09 "Hg (Jan 21, 5:30 AM)
Low57 °F (Jan 27, 12:00 AM)12% (Jan 29, 3:00 PM)29.47 "Hg (Jan 20, 1:00 PM)
Average68 °F54%29.91 "Hg
* Reported Jan 17 8:30 PM — Feb 1 8:30 PM, Adelaide, Weather by CustomWeather, © 2014

Note: Actual official high and low records may vary slightly from our data, if they occured in-between our weather recording intervals... More about our weather records

Advertising

Adelaide weather history for previous 24 hours

 ConditionsComfort  
Time TempWeatherWind HumidityBarometerVisibility
8:30 PM
Feb 1
63 °FPartly sunny.17 mph56%30.09 "HgN/A
8:00 PM64 °FPartly sunny.18 mph52%30.07 "HgN/A
7:30 PM64 °FPartly sunny.20 mph52%30.07 "HgN/A
7:00 PM66 °FPartly sunny.17 mph46%30.07 "HgN/A
6:30 PM66 °FPartly sunny.21 mph49%30.07 "HgN/A
6:00 PM66 °FPartly sunny.18 mph56%30.07 "HgN/A
5:30 PM68 °FPartly sunny.20 mph43%30.04 "HgN/A
5:00 PM70 °FPartly sunny.16 mph40%30.04 "HgN/A
4:30 PM68 °FPartly sunny.20 mph49%30.04 "HgN/A
4:00 PM68 °FScattered clouds.16 mph46%30.04 "HgN/A
3:30 PM70 °FPartly sunny.14 mph46%30.04 "HgN/A
3:00 PM68 °FPartly sunny.18 mph49%30.04 "HgN/A
2:30 PM68 °FPartly sunny.16 mph49%30.07 "HgN/A
1:30 PM66 °FScattered showers. Broken clouds.15 mph60%30.07 "HgN/A
1:00 PM66 °FBroken clouds.21 mph60%30.07 "HgN/A
12:30 PM66 °FScattered showers. Partly sunny.20 mph56%30.07 "HgN/A
12:19 PM66 °FScattered showers. Partly sunny.17 mph64%30.07 "HgN/A
12:00 PM66 °FScattered showers. Partly sunny.15 mph60%30.07 "HgN/A
11:30 AM66 °FScattered showers. Partly sunny.13 mph56%30.07 "HgN/A
11:00 AM64 °FScattered showers. Partly sunny.13 mph64%30.07 "HgN/A
10:30 AM64 °FScattered showers. Broken clouds.17 mph64%30.07 "HgN/A
10:00 AM63 °FScattered showers. Broken clouds.15 mph68%30.07 "HgN/A
9:30 AM66 °FScattered showers. Broken clouds.10 mph60%30.07 "HgN/A
9:00 AM63 °FSleet. Broken clouds.15 mph73%30.04 "HgN/A
8:30 AM61 °FSprinkles. Broken clouds.13 mph77%30.04 "HgN/A
8:00 AM61 °FScattered showers. Broken clouds.7 mph77%30.04 "HgN/A
7:30 AM59 °FScattered showers. Scattered clouds.9 mph82%30.04 "HgN/A
7:00 AM59 °FScattered showers. Passing clouds.9 mph82%30.01 "HgN/A
6:30 AM59 °FScattered showers. Passing clouds.8 mph77%30.01 "HgN/A
6:00 AM59 °FPassing clouds.10 mph82%30.01 "HgN/A
5:30 AM59 °FPartly cloudy.7 mph82%30.01 "HgN/A
5:00 AM61 °FPassing clouds.12 mph72%30.01 "HgN/A
4:30 AM61 °FPassing clouds.12 mph68%30.01 "HgN/A
4:00 AM61 °FPassing clouds.14 mph63%30.01 "HgN/A
3:30 AM61 °FPassing clouds.13 mph63%30.01 "HgN/A
3:00 AM61 °FPassing clouds.16 mph63%30.01 "HgN/A
2:30 AM61 °FPassing clouds.16 mph63%30.01 "HgN/A
1:30 AM61 °FPassing clouds.13 mph63%30.04 "HgN/A
1:00 AM61 °FPassing clouds.15 mph63%30.04 "HgN/A
12:30 AM61 °FPassing clouds.10 mph63%30.04 "HgN/A
12:00 AM61 °FPassing clouds.10 mph63%30.04 "HgN/A
11:30 PM
Jan 31
61 °FPassing clouds.12 mph63%30.04 "HgN/A
11:00 PM61 °FPassing clouds.13 mph63%30.04 "HgN/A
10:30 PM61 °FPassing clouds.18 mph63%30.04 "HgN/A
10:00 PM63 °FPassing clouds.15 mph59%30.04 "HgN/A
9:30 PM63 °FPassing clouds.17 mph59%30.01 "HgN/A
9:00 PM63 °FPassing clouds.17 mph59%30.01 "HgN/A
Weather by CustomWeather, © 2014

See weather overviewHow to use our weather pages